Regional Weather Roundup
Issued by NWS Cleveland, OH

Home | Current Version | Previous Version | Graphics & Text | Print | Product List | Glossary On
Versions: 1 2 3 4 5 6 7 8 9 10 11 12 13 14 15 16 17 18 19 20 21 22 23 24 25 26 27 28 29 30 31 32 33 34 35 36 37 38 39 40 41 42 43 44 45 46 47 48 49 50
000
ASUS41 KCLE 150300
RWRCLE
OHIO REGIONAL WEATHER ROUNDUP
NATIONAL WEATHER SERVICE WILMINGTON, OH
1100 PM EDT SUN SEP 14 2014

NOTE: "FAIR" INDICATES FEW OR NO CLOUDS BELOW 12,000 FEET WITH NO
SIGNIFICANT WEATHER AND/OR OBSTRUCTIONS TO VISIBILITY.

OHZ001>008-015>018-024>027-034-035-043-044-150400-
   NORTHWEST OHIO

CITY           SKY/WX    TMP DP  RH WIND       PRES   REMARKS
DEFIANCE       CLEAR     50  47  89 CALM      30.21F
FINDLAY        CLEAR     50  46  86 CALM      30.21S
TOLEDO EXPRESS CLEAR     48  46  93 CALM      30.21F
TOLEDO METCALF CLEAR     50  45  83 SE5       30.22F
LIMA           CLEAR     50  46  86 CALM      30.21F
$$

OHZ009>014-019>023-028>033-038-089-150400-
   NORTHEAST OHIO

CITY           SKY/WX    TMP DP  RH WIND       PRES   REMARKS
CLE-HOPKINS    CLEAR     51  47  86 SE5       30.24F
CLE-LAKEFRONT  CLEAR     56  47  71 SE6       30.22S
CUY CO. ARPT   CLEAR     50  50 100 CALM      30.24S
LORAIN-ELYRIA  CLEAR     52  47  83 CALM      30.23S
ASHTABULA      CLEAR     46  44  93 CALM      30.25R
AKRON-CANTON   CLEAR     54  43  66 CALM      30.23R
WOOSTER        NOT AVBL
MANSFIELD      CLEAR     49  46  90 CALM      30.23S
YOUNGSTOWN     CLEAR     49  46  90 NW3       30.23S
$$

OHZ042-051>053-060>062-070>072-077>081-150400-
  SOUTHWEST OHIO

CITY           SKY/WX    TMP DP  RH WIND       PRES   REMARKS
CINC-COVINGTON CLEAR     54  48  80 CALM      30.21F
CINC-LUNKEN    CLEAR     53  51  93 CALM      30.22F
HAMILTON       CLEAR     50  49  96 CALM      30.23R
DAYTON         NOT AVBL
WRIGHT-PAT AFB CLEAR     55  49  79 CALM      30.22S
DAYTON GENERAL CLEAR     54  49  83 CALM      30.22R
WILMINGTON     CLEAR     51  47  86 CALM      30.22S
$$

OHZ036-037-039>041-045>050-054>059-063>069-073>076-082>088-150400-
  CENTRAL AND SOUTHEAST OHIO

CITY           SKY/WX    TMP DP  RH WIND       PRES   REMARKS
COLUMBUS       CLEAR     56  47  71 CALM      30.22S
OSU AIRPORT    CLEAR     53  47  79 CALM      30.22S
BOLTON FIELD   NOT AVBL
RICKENBACK AFB NOT AVBL
NEWARK         FAIR      46  44  93 CALM      30.23R FOG
MARION         CLEAR     51  45  79 CALM      30.22F
LANCASTER      FAIR      48  46  93 CALM      30.23S
ZANESVILLE     CLEAR     50  46  86 CALM      30.23S
NEW PHILLY     CLEAR     47  46  97 CALM      30.24S
$$



USA.gov is the U.S. government's official web portal to all federal, state and local government web resources and services.